TimePST,TemperatureF,Dew PointF,Humidity,Sea Level PressureIn,VisibilityMPH,Wind Direction,Wind SpeedMPH,Gust SpeedMPH,PrecipitationIn,Events,Conditions,WindDirDegrees,DateUTC
1:53 AM,44.1,34.0,68,30.13,10.0,North,6.9,-,N/A,,Clear,360,2011-02-08 09:53:00
2:53 AM,44.1,33.1,65,30.13,10.0,North,8.1,-,N/A,,Clear,10,2011-02-08 10:53:00
3:53 AM,44.1,34.0,68,30.13,10.0,North,12.7,-,N/A,,Clear,350,2011-02-08 11:53:00
5:53 AM,43.0,32.0,65,30.12,10.0,North,12.7,-,N/A,,Clear,350,2011-02-08 13:53:00
6:53 AM,42.1,30.9,65,30.13,10.0,North,11.5,-,N/A,,Clear,10,2011-02-08 14:53:00
7:37 AM,42.8,30.2,61,30.15,10.0,North,10.4,-,N/A,,Clear,10,2011-02-08 15:37:00
7:39 AM,42.8,30.2,61,30.15,10.0,North,10.4,-,N/A,,Clear,10,2011-02-08 15:39:00
7:45 AM,42.8,30.2,61,30.15,10.0,North,10.4,-,N/A,,Clear,10,2011-02-08 15:45:00
7:53 AM,44.1,30.9,60,30.14,10.0,NNE,10.4,-,N/A,,Clear,20,2011-02-08 15:53:00
9:53 AM,52.0,30.0,43,30.14,10.0,North,12.7,-,N/A,,Clear,350,2011-02-08 17:53:00
10:53 AM,55.9,28.9,36,30.13,10.0,NNW,13.8,-,N/A,,Clear,340,2011-02-08 18:53:00
11:53 AM,59.0,28.0,31,30.10,10.0,NNW,12.7,19.6,N/A,,Clear,330,2011-02-08 19:53:00
12:53 PM,60.1,28.0,30,30.08,10.0,NW,15.0,23.0,N/A,,Clear,310,2011-02-08 20:53:00
1:53 PM,62.1,28.0,28,30.06,10.0,NNW,11.5,18.4,N/A,,Clear,330,2011-02-08 21:53:00
2:53 PM,63.0,23.0,22,30.06,10.0,NNE,13.8,-,N/A,,Clear,30,2011-02-08 22:53:00
3:53 PM,62.1,21.9,21,30.05,10.0,NNE,15.0,21.9,N/A,,Clear,20,2011-02-08 23:53:00
4:53 PM,60.1,21.9,23,30.06,10.0,NNE,10.4,18.4,N/A,,Clear,30,2011-02-09 00:53:00
5:53 PM,53.1,34.0,48,30.08,10.0,North,11.5,-,N/A,,Clear,360,2011-02-09 01:53:00
6:53 PM,51.1,35.1,54,30.09,10.0,North,8.1,-,N/A,,Clear,350,2011-02-09 02:53:00
7:53 PM,53.1,32.0,45,30.11,10.0,WSW,8.1,17.3,N/A,,Clear,250,2011-02-09 03:53:00
8:53 PM,48.9,34.0,56,30.11,10.0,North,13.8,-,N/A,,Clear,350,2011-02-09 04:53:00
9:53 PM,46.9,34.0,61,30.13,10.0,WNW,6.9,-,N/A,,Clear,290,2011-02-09 05:53:00
10:53 PM,50.0,28.0,43,30.12,10.0,North,9.2,20.7,N/A,,Clear,350,2011-02-09 06:53:00
11:53 PM,46.0,28.9,51,30.14,10.0,NNW,3.5,-,N/A,,Clear,340,2011-02-09 07:53:00